owner,sensor,date,latitude,longitude,vertical_datum,direction_of_sea_water_velocity,sea_water_speed,upward_sea_water_velocity,qcFlag 
TABS,ioos:station:wmo:42050:1,2014-03-01T00:00:00Z,28.8425,-94.2433,2.0,239.4644258,13.75800131,-99999.0,'11111222,11111222,99999999' 
TABS,ioos:station:wmo:42050:1,2014-03-01T00:30:00Z,28.8425,-94.2433,2.0,245.1207724,15.04630852,-99999.0,'11111222,11111222,99999999' 
TABS,ioos:station:wmo:42050:1,2014-03-01T01:00:00Z,28.8425,-94.2433,2.0,254.1785293,14.56162766,-99999.0,'11111222,11111222,99999999' 
TABS,ioos:station:wmo:42050:1,2014-03-01T01:30:00Z,28.8425,-94.2433,2.0,262.515443,14.04969039,-99999.0,'11111222,11111222,99999999' 
TABS,ioos:station:wmo:42050:1,2014-03-01T02:00:00Z,28.8425,-94.2433,2.0,267.6136406,10.32895445,-99999.0,'11111222,11111222,99999999' 
TABS,ioos:station:wmo:42050:1,2014-03-01T02:30:00Z,28.8425,-94.2433,2.0,270.0004209,11.31,-99999.0,'11111222,11111222,99999999' 
TABS,ioos:station:wmo:42050:1,2014-03-01T03:00:00Z,28.8425,-94.2433,2.0,296.0947689,10.34439945,-99999.0,'11111222,11111222,99999999' 
TABS,ioos:station:wmo:42050:1,2014-03-01T03:30:00Z,28.8425,-94.2433,2.0,298.3111489,11.59715913,-99999.0,'11111222,11111222,99999999' 
TABS,ioos:station:wmo:42050:1,2014-03-01T04:00:00Z,28.8425,-94.2433,2.0,292.0028575,8.995137575,-99999.0,'11133222,11111222,99999999' 
TABS,ioos:station:wmo:42050:1,2014-03-01T04:30:00Z,28.8425,-94.2433,2.0,306.2483082,10.50261872,-99999.0,'11111222,11111222,99999999' 
TABS,ioos:station:wmo:42050:1,2014-03-01T05:00:00Z,28.8425,-94.2433,2.0,304.2251535,8.32086534,-99999.0,'11133222,11111222,99999999' 
TABS,ioos:station:wmo:42050:1,2014-03-01T05:30:00Z,28.8425,-94.2433,2.0,310.3889582,9.05907832,-99999.0,'11133222,11111222,99999999' 
TABS,ioos:station:wmo:42050:1,2014-03-01T06:00:00Z,28.8425,-94.2433,2.0,284.0366316,6.555737945,-99999.0,'11133222,11111222,99999999' 
TABS,ioos:station:wmo:42050:1,2014-03-01T06:30:00Z,28.8425,-94.2433,2.0,292.5767077,8.100771568,-99999.0,'11133222,11111222,99999999' 
TABS,ioos:station:wmo:42050:1,2014-03-01T07:00:00Z,28.8425,-94.2433,2.0,292.8624369,7.824685297,-99999.0,'11133222,11111222,99999999' 
TABS,ioos:station:wmo:42050:1,2014-03-01T07:30:00Z,28.8425,-94.2433,2.0,278.2253471,7.689089673,-99999.0,'11133222,11111222,99999999' 
TABS,ioos:station:wmo:42050:1,2014-03-01T08:00:00Z,28.8425,-94.2433,2.0,259.4333282,7.252985592,-99999.0,'11133222,11111222,99999999' 
TABS,ioos:station:wmo:42050:1,2014-03-01T08:30:00Z,28.8425,-94.2433,2.0,256.3155913,7.10157729,-99999.0,'11133222,11111222,99999999' 
TABS,ioos:station:wmo:42050:1,2014-03-01T09:00:00Z,28.8425,-94.2433,2.0,241.0092613,8.665817907,-99999.0,'11133222,11111222,99999999' 
TABS,ioos:station:wmo:42050:1,2014-03-01T09:30:00Z,28.8425,-94.2433,2.0,231.6291577,12.37224313,-99999.0,'11111222,11111222,99999999' 
TABS,ioos:station:wmo:42050:1,2014-03-01T10:00:00Z,28.8425,-94.2433,2.0,236.0916936,13.8565111,-99999.0,'11111222,11111222,99999999' 
TABS,ioos:station:wmo:42050:1,2014-03-01T10:30:00Z,28.8425,-94.2433,2.0,230.1421772,15.54112287,-99999.0,'11111222,11111222,99999999' 
TABS,ioos:station:wmo:42050:1,2014-03-01T11:00:00Z,28.8425,-94.2433,2.0,230.7664253,17.945264,-99999.0,'11111222,11111222,99999999' 
TABS,ioos:station:wmo:42050:1,2014-03-01T11:30:00Z,28.8425,-94.2433,2.0,231.4930344,20.44634197,-99999.0,'11111222,11111222,99999999' 
TABS,ioos:station:wmo:42050:1,2014-03-01T12:00:00Z,28.8425,-94.2433,2.0,230.7141522,20.73642689,-99999.0,'11111222,11111222,99999999' 
TABS,ioos:station:wmo:42050:1,2014-03-01T12:30:00Z,28.8425,-94.2433,2.0,233.5530399,19.4925319,-99999.0,'11111222,11111222,99999999' 
TABS,ioos:station:wmo:42050:1,2014-03-01T13:00:00Z,28.8425,-94.2433,2.0,237.7280024,19.15966858,-99999.0,'11111222,11111222,99999999' 
TABS,ioos:station:wmo:42050:1,2014-03-01T13:30:00Z,28.8425,-94.2433,2.0,246.3814907,20.44233353,-99999.0,'11111222,11111222,99999999' 
TABS,ioos:station:wmo:42050:1,2014-03-01T14:00:00Z,28.8425,-94.2433,2.0,248.4454621,18.07389554,-99999.0,'11111222,11111222,99999999' 
TABS,ioos:station:wmo:42050:1,2014-03-01T14:30:00Z,28.8425,-94.2433,2.0,252.7739006,19.18032325,-99999.0,'11111222,11111222,99999999' 
TABS,ioos:station:wmo:42050:1,2014-03-01T15:00:00Z,28.8425,-94.2433,2.0,263.5019398,21.29680023,-99999.0,'11111222,11111222,99999999' 
TABS,ioos:station:wmo:42050:1,2014-03-01T15:30:00Z,28.8425,-94.2433,2.0,266.7323671,20.00251234,-99999.0,'11111222,11111222,99999999' 
TABS,ioos:station:wmo:42050:1,2014-03-01T16:00:00Z,28.8425,-94.2433,2.0,264.0022887,23.0662459,-99999.0,'11111222,11111222,99999999' 
TABS,ioos:station:wmo:42050:1,2014-03-01T16:30:00Z,28.8425,-94.2433,2.0,298.1986219,17.41710079,-99999.0,'11111222,11111222,99999999' 
TABS,ioos:station:wmo:42050:1,2014-03-01T17:00:00Z,28.8425,-94.2433,2.0,311.5075066,16.94547137,-99999.0,'11111222,11111222,99999999' 
TABS,ioos:station:wmo:42050:1,2014-03-01T17:30:00Z,28.8425,-94.2433,2.0,323.7650364,18.23711874,-99999.0,'11111222,11111222,99999999' 
TABS,ioos:station:wmo:42050:1,2014-03-01T18:00:00Z,28.8425,-94.2433,2.0,323.130399,18.25,-99999.0,'11111222,11111222,99999999' 
TABS,ioos:station:wmo:42050:1,2014-03-01T18:30:00Z,28.8425,-94.2433,2.0,338.5753032,20.06667137,-99999.0,'11111222,11111222,99999999' 
TABS,ioos:station:wmo:42050:1,2014-03-01T19:00:00Z,28.8425,-94.2433,2.0,342.0393714,21.40302782,-99999.0,'11111222,11111222,99999999' 
TABS,ioos:station:wmo:42050:1,2014-03-01T19:30:00Z,28.8425,-94.2433,2.0,351.2131751,23.43505921,-99999.0,'11111222,11111222,99999999' 
TABS,ioos:station:wmo:42050:1,2014-03-01T20:00:00Z,28.8425,-94.2433,2.0,354.7372438,25.72846672,-99999.0,'11111222,11111222,99999999' 
TABS,ioos:station:wmo:42050:1,2014-03-01T20:30:00Z,28.8425,-94.2433,2.0,359.3984779,26.66147033,-99999.0,'11111222,11144222,99999999' 
TABS,ioos:station:wmo:42050:1,2014-03-01T21:00:00Z,28.8425,-94.2433,2.0,5.068146971,25.01780366,-99999.0,'11111222,11111222,99999999' 
TABS,ioos:station:wmo:42050:1,2014-03-01T21:30:00Z,28.8425,-94.2433,2.0,5.77889507,23.43911261,-99999.0,'11111222,11111222,99999999' 
TABS,ioos:station:wmo:42050:1,2014-03-01T22:00:00Z,28.8425,-94.2433,2.0,4.73638236,22.52691945,-99999.0,'11111222,11111222,99999999' 
TABS,ioos:station:wmo:42050:1,2014-03-01T22:30:00Z,28.8425,-94.2433,2.0,1.722232122,20.29916747,-99999.0,'11111222,11111222,99999999' 
TABS,ioos:station:wmo:42050:1,2014-03-01T23:00:00Z,28.8425,-94.2433,2.0,345.1100629,17.90111728,-99999.0,'11111222,11111222,99999999' 
TABS,ioos:station:wmo:42050:1,2014-03-01T23:30:00Z,28.8425,-94.2433,2.0,332.9973014,17.55364634,-99999.0,'11111222,11111222,99999999' 
TABS,ioos:station:wmo:42050:1,2014-03-02T00:00:00Z,28.8425,-94.2433,2.0,339.5128132,13.68563115,-99999.0,'11111222,11111222,99999999' 
TABS,ioos:station:wmo:42050:1,2014-03-02T00:30:00Z,28.8425,-94.2433,2.0,341.0799765,14.18648653,-99999.0,'11111222,11111222,99999999' 
TABS,ioos:station:wmo:42050:1,2014-03-02T01:00:00Z,28.8425,-94.2433,2.0,331.4348998,12.17162684,-99999.0,'11111222,11111222,99999999' 
TABS,ioos:station:wmo:42050:1,2014-03-02T01:30:00Z,28.8425,-94.2433,2.0,330.0186412,12.30683144,-99999.0,'11111222,11111222,99999999' 
TABS,ioos:station:wmo:42050:1,2014-03-02T02:00:00Z,28.8425,-94.2433,2.0,317.7631097,10.56231035,-99999.0,'11111222,11111222,99999999' 
TABS,ioos:station:wmo:42050:1,2014-03-02T02:30:00Z,28.8425,-94.2433,2.0,297.6831052,9.858463369,-99999.0,'11133222,11111222,99999999' 
TABS,ioos:station:wmo:42050:1,2014-03-02T03:00:00Z,28.8425,-94.2433,2.0,314.511381,9.114938288,-99999.0,'11133222,11111222,99999999' 
TABS,ioos:station:wmo:42050:1,2014-03-02T03:30:00Z,28.8425,-94.2433,2.0,320.1947324,8.513172147,-99999.0,'11133222,11111222,99999999' 
TABS,ioos:station:wmo:42050:1,2014-03-02T04:00:00Z,28.8425,-94.2433,2.0,331.242638,11.80613823,-99999.0,'11111222,11111222,99999999' 
TABS,ioos:station:wmo:42050:1,2014-03-02T04:30:00Z,28.8425,-94.2433,2.0,333.8991436,11.04653792,-99999.0,'11111222,11111222,99999999' 
TABS,ioos:station:wmo:42050:1,2014-03-02T05:00:00Z,28.8425,-94.2433,2.0,329.0211532,12.783505,-99999.0,'11111222,11111222,99999999' 
TABS,ioos:station:wmo:42050:1,2014-03-02T05:30:00Z,28.8425,-94.2433,2.0,334.2158859,11.81648002,-99999.0,'11111222,11111222,99999999' 
TABS,ioos:station:wmo:42050:1,2014-03-02T06:00:00Z,28.8425,-94.2433,2.0,334.2531051,12.84528318,-99999.0,'11111222,11111222,99999999' 
TABS,ioos:station:wmo:42050:1,2014-03-02T06:30:00Z,28.8425,-94.2433,2.0,336.9924117,14.19955633,-99999.0,'11111222,11111222,99999999' 
TABS,ioos:station:wmo:42050:1,2014-03-02T07:00:00Z,28.8425,-94.2433,2.0,321.7119909,12.76591164,-99999.0,'11111222,11111222,99999999' 
TABS,ioos:station:wmo:42050:1,2014-03-02T07:30:00Z,28.8425,-94.2433,2.0,327.9035701,11.96951127,-99999.0,'11111222,11111222,99999999' 
TABS,ioos:station:wmo:42050:1,2014-03-02T08:00:00Z,28.8425,-94.2433,2.0,335.0395555,8.625659395,-99999.0,'11133222,11111222,99999999' 
TABS,ioos:station:wmo:42050:1,2014-03-02T08:30:00Z,28.8425,-94.2433,2.0,332.3576874,7.134318468,-99999.0,'11133222,11111222,99999999' 
TABS,ioos:station:wmo:42050:1,2014-03-02T09:00:00Z,28.8425,-94.2433,2.0,321.8659799,5.619368292,-99999.0,'11133222,11111222,99999999' 
TABS,ioos:station:wmo:42050:1,2014-03-02T09:30:00Z,28.8425,-94.2433,2.0,286.9210269,6.94046108,-99999.0,'11133222,11111222,99999999' 
TABS,ioos:station:wmo:42050:1,2014-03-02T10:00:00Z,28.8425,-94.2433,2.0,293.5848672,5.848521181,-99999.0,'11133222,11111222,99999999' 
TABS,ioos:station:wmo:42050:1,2014-03-02T10:30:00Z,28.8425,-94.2433,2.0,249.7613582,6.330853023,-99999.0,'11133222,11111222,99999999' 
TABS,ioos:station:wmo:42050:1,2014-03-02T11:00:00Z,28.8425,-94.2433,2.0,246.2232912,10.93838196,-99999.0,'11111222,11111222,99999999' 
TABS,ioos:station:wmo:42050:1,2014-03-02T11:30:00Z,28.8425,-94.2433,2.0,246.409857,10.77000464,-99999.0,'11111222,11111222,99999999' 
TABS,ioos:station:wmo:42050:1,2014-03-02T12:00:00Z,28.8425,-94.2433,2.0,243.0448297,13.14838393,-99999.0,'11111222,11111222,99999999' 
TABS,ioos:station:wmo:42050:1,2014-03-02T12:30:00Z,28.8425,-94.2433,2.0,236.6389351,14.47514076,-99999.0,'11111222,11111222,99999999' 
TABS,ioos:station:wmo:42050:1,2014-03-02T13:00:00Z,28.8425,-94.2433,2.0,240.5731312,13.61674337,-99999.0,'11111222,11111222,99999999' 
TABS,ioos:station:wmo:42050:1,2014-03-02T13:30:00Z,28.8425,-94.2433,2.0,235.156066,13.91470086,-99999.0,'11111222,11111222,99999999' 
TABS,ioos:station:wmo:42050:1,2014-03-02T14:00:00Z,28.8425,-94.2433,2.0,238.2007406,11.76605286,-99999.0,'11111222,11111222,99999999' 
TABS,ioos:station:wmo:42050:1,2014-03-02T14:30:00Z,28.8425,-94.2433,2.0,256.4527711,12.20968878,-99999.0,'11111222,11111222,99999999' 
TABS,ioos:station:wmo:42050:1,2014-03-02T15:00:00Z,28.8425,-94.2433,2.0,254.0676387,11.73059248,-99999.0,'11111222,11111222,99999999' 
TABS,ioos:station:wmo:42050:1,2014-03-02T15:30:00Z,28.8425,-94.2433,2.0,268.4023957,7.893066578,-99999.0,'11133222,11111222,99999999' 
TABS,ioos:station:wmo:42050:1,2014-03-02T16:00:00Z,28.8425,-94.2433,2.0,273.83379,9.872086912,-99999.0,'11133222,11111222,99999999' 
TABS,ioos:station:wmo:42050:1,2014-03-02T16:30:00Z,28.8425,-94.2433,2.0,289.1149802,9.863837995,-99999.0,'11133222,11111222,99999999' 
TABS,ioos:station:wmo:42050:1,2014-03-02T17:00:00Z,28.8425,-94.2433,2.0,299.1375086,11.46021379,-99999.0,'11111222,11111222,99999999' 
TABS,ioos:station:wmo:42050:1,2014-03-02T17:30:00Z,28.8425,-94.2433,2.0,301.5100863,11.51836794,-99999.0,'11111222,11111222,99999999' 
TABS,ioos:station:wmo:42050:1,2014-03-02T18:00:00Z,28.8425,-94.2433,2.0,305.508143,13.37778008,-99999.0,'11111222,11111222,99999999' 
TABS,ioos:station:wmo:42050:1,2014-03-02T18:30:00Z,28.8425,-94.2433,2.0,305.6166392,12.70704136,-99999.0,'11111222,11111222,99999999' 
TABS,ioos:station:wmo:42050:1,2014-03-02T19:00:00Z,28.8425,-94.2433,2.0,314.7450217,11.10875781,-99999.0,'11111222,11111222,99999999' 
TABS,ioos:station:wmo:42050:1,2014-03-02T19:30:00Z,28.8425,-94.2433,2.0,318.9262142,13.01301656,-99999.0,'11111222,11111222,99999999' 
TABS,ioos:station:wmo:42050:1,2014-03-02T20:00:00Z,28.8425,-94.2433,2.0,322.4772837,14.56294613,-99999.0,'11111222,11111222,99999999' 
TABS,ioos:station:wmo:42050:1,2014-03-02T20:30:00Z,28.8425,-94.2433,2.0,321.9198328,14.67327503,-99999.0,'11111222,11111222,99999999' 
TABS,ioos:station:wmo:42050:1,2014-03-02T21:00:00Z,28.8425,-94.2433,2.0,315.5300414,14.53166542,-99999.0,'11111222,11111222,99999999' 
TABS,ioos:station:wmo:42050:1,2014-03-02T21:30:00Z,28.8425,-94.2433,2.0,320.938178,14.01225535,-99999.0,'11111222,11111222,99999999' 
TABS,ioos:station:wmo:42050:1,2014-03-02T22:00:00Z,28.8425,-94.2433,2.0,313.7897494,10.37557227,-99999.0,'11111222,11111222,99999999' 
TABS,ioos:station:wmo:42050:1,2014-03-02T22:30:00Z,28.8425,-94.2433,2.0,294.472787,8.328199085,-99999.0,'11133222,11111222,99999999' 
TABS,ioos:station:wmo:42050:1,2014-03-02T23:00:00Z,28.8425,-94.2433,2.0,281.2571523,8.452609065,-99999.0,'11133222,11111222,99999999' 
TABS,ioos:station:wmo:42050:1,2014-03-02T23:30:00Z,28.8425,-94.2433,2.0,263.1388711,8.873539316,-99999.0,'11133222,11111222,99999999' 
TABS,ioos:station:wmo:42050:1,2014-03-03T00:00:00Z,28.8425,-94.2433,2.0,253.559238,10.81205346,-99999.0,'11111222,11111222,99999999' 
TABS,ioos:station:wmo:42050:1,2014-03-03T00:30:00Z,28.8425,-94.2433,2.0,249.700855,12.25082038,-99999.0,'11111222,11111222,99999999' 
TABS,ioos:station:wmo:42050:1,2014-03-03T01:00:00Z,28.8425,-94.2433,2.0,243.2167369,12.93798284,-99999.0,'11111222,11111222,99999999' 
TABS,ioos:station:wmo:42050:1,2014-03-03T01:30:00Z,28.8425,-94.2433,2.0,240.5828436,13.2136369,-99999.0,'11111222,11111222,99999999' 
TABS,ioos:station:wmo:42050:1,2014-03-03T02:00:00Z,28.8425,-94.2433,2.0,250.4020062,13.71445952,-99999.0,'11111222,11111222,99999999' 
TABS,ioos:station:wmo:42050:1,2014-03-03T02:30:00Z,28.8425,-94.2433,2.0,257.0325254,12.478205,-99999.0,'11111222,11111222,99999999' 
TABS,ioos:station:wmo:42050:1,2014-03-03T03:00:00Z,28.8425,-94.2433,2.0,250.0788047,7.073231228,-99999.0,'11133222,11111222,99999999' 
TABS,ioos:station:wmo:42050:1,2014-03-03T03:30:00Z,28.8425,-94.2433,2.0,246.2757154,9.022444236,-99999.0,'11133222,11111222,99999999' 
TABS,ioos:station:wmo:42050:1,2014-03-03T04:00:00Z,28.8425,-94.2433,2.0,218.7111184,12.13626796,-99999.0,'11111222,11111222,99999999' 
TABS,ioos:station:wmo:42050:1,2014-03-03T04:30:00Z,28.8425,-94.2433,2.0,221.8145904,17.05347472,-99999.0,'11111222,11111222,99999999' 
TABS,ioos:station:wmo:42050:1,2014-03-03T05:00:00Z,28.8425,-94.2433,2.0,228.2946962,19.31473272,-99999.0,'11111222,11111222,99999999' 
TABS,ioos:station:wmo:42050:1,2014-03-03T05:30:00Z,28.8425,-94.2433,2.0,250.001652,16.46261826,-99999.0,'11111222,11111222,99999999' 
TABS,ioos:station:wmo:42050:1,2014-03-03T06:00:00Z,28.8425,-94.2433,2.0,247.8549034,13.63585348,-99999.0,'11111222,11111222,99999999' 
TABS,ioos:station:wmo:42050:1,2014-03-03T06:30:00Z,28.8425,-94.2433,2.0,272.7425828,15.46771153,-99999.0,'11111222,11111222,99999999' 
TABS,ioos:station:wmo:42050:1,2014-03-03T07:00:00Z,28.8425,-94.2433,2.0,296.7440242,12.91111924,-99999.0,'11111222,11111222,99999999' 
TABS,ioos:station:wmo:42050:1,2014-03-03T07:30:00Z,28.8425,-94.2433,2.0,311.8827182,9.751292222,-99999.0,'11133222,11111222,99999999' 
TABS,ioos:station:wmo:42050:1,2014-03-03T08:00:00Z,28.8425,-94.2433,2.0,302.1798948,12.20487198,-99999.0,'11111222,11111222,99999999' 
TABS,ioos:station:wmo:42050:1,2014-03-03T08:30:00Z,28.8425,-94.2433,2.0,278.6273261,9.13333455,-99999.0,'11133222,11111222,99999999' 
TABS,ioos:station:wmo:42050:1,2014-03-03T09:00:00Z,28.8425,-94.2433,2.0,294.1794715,4.834097641,-99999.0,'11133222,11111222,99999999' 
TABS,ioos:station:wmo:42050:1,2014-03-03T09:30:00Z,28.8425,-94.2433,2.0,273.5921884,9.258185567,-99999.0,'11133222,11111222,99999999' 
TABS,ioos:station:wmo:42050:1,2014-03-03T10:00:00Z,28.8425,-94.2433,2.0,258.2793263,4.381346825,-99999.0,'11133222,11111222,99999999' 
TABS,ioos:station:wmo:42050:1,2014-03-03T10:30:00Z,28.8425,-94.2433,2.0,233.219372,8.952010947,-99999.0,'11133222,11111222,99999999' 
TABS,ioos:station:wmo:42050:1,2014-03-03T11:00:00Z,28.8425,-94.2433,2.0,243.0128631,4.253116504,-99999.0,'11133222,11111222,99999999' 
TABS,ioos:station:wmo:42050:1,2014-03-03T11:30:00Z,28.8425,-94.2433,2.0,215.2379324,10.67632896,-99999.0,'11111222,11111222,99999999' 
TABS,ioos:station:wmo:42050:1,2014-03-03T12:00:00Z,28.8425,-94.2433,2.0,237.8533159,11.63351194,-99999.0,'11111222,11111222,99999999' 
TABS,ioos:station:wmo:42050:1,2014-03-03T12:30:00Z,28.8425,-94.2433,2.0,213.603434,12.88292669,-99999.0,'11111222,11111222,99999999' 
TABS,ioos:station:wmo:42050:1,2014-03-03T13:00:00Z,28.8425,-94.2433,2.0,224.6197453,10.66340471,-99999.0,'11111222,11111222,99999999' 
TABS,ioos:station:wmo:42050:1,2014-03-03T13:30:00Z,28.8425,-94.2433,2.0,228.2908386,14.53380198,-99999.0,'11111222,11111222,99999999' 
TABS,ioos:station:wmo:42050:1,2014-03-03T14:00:00Z,28.8425,-94.2433,2.0,235.1943806,18.09774848,-99999.0,'11111222,11111222,99999999' 
TABS,ioos:station:wmo:42050:1,2014-03-03T14:30:00Z,28.8425,-94.2433,2.0,228.2833587,18.39376253,-99999.0,'11111222,11111222,99999999' 
TABS,ioos:station:wmo:42050:1,2014-03-03T15:00:00Z,28.8425,-94.2433,2.0,240.6316763,15.27272733,-99999.0,'11111222,11111222,99999999' 
TABS,ioos:station:wmo:42050:1,2014-03-03T15:30:00Z,28.8425,-94.2433,2.0,225.3165818,12.78468615,-99999.0,'11111222,11111222,99999999' 
TABS,ioos:station:wmo:42050:1,2014-03-03T16:00:00Z,28.8425,-94.2433,2.0,255.5307474,12.52732214,-99999.0,'11111222,11111222,99999999' 
TABS,ioos:station:wmo:42050:1,2014-03-03T16:30:00Z,28.8425,-94.2433,2.0,258.0962064,14.01128831,-99999.0,'11111222,11111222,99999999' 
TABS,ioos:station:wmo:42050:1,2014-03-03T17:00:00Z,28.8425,-94.2433,2.0,276.03425,15.69696149,-99999.0,'11111222,11111222,99999999' 
TABS,ioos:station:wmo:42050:1,2014-03-03T17:30:00Z,28.8425,-94.2433,2.0,272.834894,15.36880282,-99999.0,'11111222,11111222,99999999' 
TABS,ioos:station:wmo:42050:1,2014-03-03T18:00:00Z,28.8425,-94.2433,2.0,294.6400851,14.77533418,-99999.0,'11111222,11111222,99999999' 
TABS,ioos:station:wmo:42050:1,2014-03-03T18:30:00Z,28.8425,-94.2433,2.0,299.5273795,12.72233469,-99999.0,'11111222,11111222,99999999' 
TABS,ioos:station:wmo:42050:1,2014-03-03T19:00:00Z,28.8425,-94.2433,2.0,326.5460049,8.761563787,-99999.0,'11133222,11111222,99999999' 
TABS,ioos:station:wmo:42050:1,2014-03-03T19:30:00Z,28.8425,-94.2433,2.0,310.5886196,9.560125522,-99999.0,'11133222,11111222,99999999' 
TABS,ioos:station:wmo:42050:1,2014-03-03T20:00:00Z,28.8425,-94.2433,2.0,314.340395,13.50663541,-99999.0,'11111222,11111222,99999999' 
TABS,ioos:station:wmo:42050:1,2014-03-03T20:30:00Z,28.8425,-94.2433,2.0,306.2666539,12.34068475,-99999.0,'11111222,11111222,99999999' 
TABS,ioos:station:wmo:42050:1,2014-03-03T21:00:00Z,28.8425,-94.2433,2.0,310.8791487,12.98777887,-99999.0,'11111222,11111222,99999999' 
TABS,ioos:station:wmo:42050:1,2014-03-03T21:30:00Z,28.8425,-94.2433,2.0,296.7594856,11.8825334,-99999.0,'11111222,11111222,99999999' 
TABS,ioos:station:wmo:42050:1,2014-03-03T22:00:00Z,28.8425,-94.2433,2.0,289.032462,11.53029054,-99999.0,'11111222,11111222,99999999' 
TABS,ioos:station:wmo:42050:1,2014-03-03T22:30:00Z,28.8425,-94.2433,2.0,301.7365469,11.95796805,-99999.0,'11111222,11111222,99999999' 
TABS,ioos:station:wmo:42050:1,2014-03-03T23:00:00Z,28.8425,-94.2433,2.0,280.7408795,12.23432875,-99999.0,'11111222,11111222,99999999' 
TABS,ioos:station:wmo:42050:1,2014-03-03T23:30:00Z,28.8425,-94.2433,2.0,263.6445008,12.73827696,-99999.0,'11111222,11111222,99999999' 
TABS,ioos:station:wmo:42050:1,2014-03-04T00:00:00Z,28.8425,-94.2433,2.0,253.9506118,15.19210321,-99999.0,'11111222,11111222,99999999' 
TABS,ioos:station:wmo:42050:1,2014-03-04T00:30:00Z,28.8425,-94.2433,2.0,238.6554132,13.68760388,-99999.0,'11111222,11111222,99999999' 
TABS,ioos:station:wmo:42050:1,2014-03-04T01:00:00Z,28.8425,-94.2433,2.0,246.112746,19.23778054,-99999.0,'11111222,11111222,99999999' 
TABS,ioos:station:wmo:42050:1,2014-03-04T01:30:00Z,28.8425,-94.2433,2.0,241.4400254,13.49166409,-99999.0,'11111222,11111222,99999999' 
TABS,ioos:station:wmo:42050:1,2014-03-04T02:00:00Z,28.8425,-94.2433,2.0,230.9746207,14.94457092,-99999.0,'11111222,11111222,99999999' 
TABS,ioos:station:wmo:42050:1,2014-03-04T02:30:00Z,28.8425,-94.2433,2.0,235.3416563,16.58235508,-99999.0,'11111222,11111222,99999999' 
TABS,ioos:station:wmo:42050:1,2014-03-04T03:00:00Z,28.8425,-94.2433,2.0,248.1847725,15.8231002,-99999.0,'11111222,11111222,99999999' 
TABS,ioos:station:wmo:42050:1,2014-03-04T03:30:00Z,28.8425,-94.2433,2.0,242.053086,18.73475113,-99999.0,'11111222,11111222,99999999' 
TABS,ioos:station:wmo:42050:1,2014-03-04T04:00:00Z,28.8425,-94.2433,2.0,260.475833,16.86241382,-99999.0,'11111222,11111222,99999999' 
TABS,ioos:station:wmo:42050:1,2014-03-04T04:30:00Z,28.8425,-94.2433,2.0,266.5112727,13.80557858,-99999.0,'11111222,11111222,99999999' 
TABS,ioos:station:wmo:42050:1,2014-03-04T05:00:00Z,28.8425,-94.2433,2.0,280.042802,15.42634759,-99999.0,'11111222,11111222,99999999' 
TABS,ioos:station:wmo:42050:1,2014-03-04T05:30:00Z,28.8425,-94.2433,2.0,284.824813,15.868182,-99999.0,'11111222,11111222,99999999' 
TABS,ioos:station:wmo:42050:1,2014-03-04T06:00:00Z,28.8425,-94.2433,2.0,282.9400563,18.75628961,-99999.0,'11111222,11111222,99999999' 
TABS,ioos:station:wmo:42050:1,2014-03-04T06:30:00Z,28.8425,-94.2433,2.0,290.6759239,17.95649186,-99999.0,'11111222,11111222,99999999' 
TABS,ioos:station:wmo:42050:1,2014-03-04T07:00:00Z,28.8425,-94.2433,2.0,310.3875403,18.28844991,-99999.0,'11111222,11111222,99999999' 
TABS,ioos:station:wmo:42050:1,2014-03-04T07:30:00Z,28.8425,-94.2433,2.0,308.8073106,17.63207588,-99999.0,'11111222,11111222,99999999' 
TABS,ioos:station:wmo:42050:1,2014-03-04T08:00:00Z,28.8425,-94.2433,2.0,310.5822771,16.06370132,-99999.0,'11111222,11111222,99999999' 
TABS,ioos:station:wmo:42050:1,2014-03-04T08:30:00Z,28.8425,-94.2433,2.0,316.1424221,17.73776198,-99999.0,'11111222,11111222,99999999' 
TABS,ioos:station:wmo:42050:1,2014-03-04T09:00:00Z,28.8425,-94.2433,2.0,322.5949413,14.33862615,-99999.0,'11111222,11111222,99999999' 
TABS,ioos:station:wmo:42050:1,2014-03-04T09:30:00Z,28.8425,-94.2433,2.0,314.3796371,16.97155856,-99999.0,'11111222,11111222,99999999' 
TABS,ioos:station:wmo:42050:1,2014-03-04T10:00:00Z,28.8425,-94.2433,2.0,307.4989892,13.48681208,-99999.0,'11111222,11111222,99999999' 
TABS,ioos:station:wmo:42050:1,2014-03-04T10:30:00Z,28.8425,-94.2433,2.0,289.3014219,9.832644609,-99999.0,'11133222,11111222,99999999' 
TABS,ioos:station:wmo:42050:1,2014-03-04T11:00:00Z,28.8425,-94.2433,2.0,276.5998524,10.00630301,-99999.0,'11111222,11111222,99999999' 
TABS,ioos:station:wmo:42050:1,2014-03-04T11:30:00Z,28.8425,-94.2433,2.0,264.1238192,10.35440003,-99999.0,'11111222,11111222,99999999' 
TABS,ioos:station:wmo:42050:1,2014-03-04T12:00:00Z,28.8425,-94.2433,2.0,244.6847459,13.93849346,-99999.0,'11111222,11111222,99999999' 
TABS,ioos:station:wmo:42050:1,2014-03-04T12:30:00Z,28.8425,-94.2433,2.0,243.6188621,19.46730849,-99999.0,'11111222,11111222,99999999' 
TABS,ioos:station:wmo:42050:1,2014-03-04T13:00:00Z,28.8425,-94.2433,2.0,244.3108081,19.00880059,-99999.0,'11111222,11111222,99999999' 
TABS,ioos:station:wmo:42050:1,2014-03-04T13:30:00Z,28.8425,-94.2433,2.0,244.7717311,19.35620314,-99999.0,'11111222,11111222,99999999' 
TABS,ioos:station:wmo:42050:1,2014-03-04T14:00:00Z,28.8425,-94.2433,2.0,239.7613362,22.75625628,-99999.0,'11111222,11111222,99999999' 
TABS,ioos:station:wmo:42050:1,2014-03-04T14:30:00Z,28.8425,-94.2433,2.0,245.2394607,16.04503973,-99999.0,'11111222,11111222,99999999' 
TABS,ioos:station:wmo:42050:1,2014-03-04T15:00:00Z,28.8425,-94.2433,2.0,246.479784,12.88005047,-99999.0,'11111222,11111222,99999999' 
TABS,ioos:station:wmo:42050:1,2014-03-04T15:30:00Z,28.8425,-94.2433,2.0,247.6792189,17.22023519,-99999.0,'11111222,11111222,99999999' 
TABS,ioos:station:wmo:42050:1,2014-03-04T16:00:00Z,28.8425,-94.2433,2.0,249.9990007,19.55966513,-99999.0,'11111222,11111222,99999999' 